Regional Weather Roundup
Issued by NWS Little Rock, AR

Home | Current Version | Previous Version | Graphics & Text | Print | Product List | Glossary On
Versions: 1 2 3 4 5 6 7 8 9 10 11 12 13 14 15 16 17 18 19 20 21 22 23 24 25 26 27 28
000
ASUS44 KLZK 170105
RWRLZK

WEATHER ROUNDUP FOR ARKANSAS
NATIONAL WEATHER SERVICE LITTLE ROCK AR
800 PM CDT WED APR 16 2014

NOTE: "FAIR" INDICATES FEW OR NO CLOUDS BELOW 12,000 FEET WITH NO
SIGNIFICANT WEATHER AND/OR OBSTRUCTIONS TO VISIBILITY.

ARZ001-003-010-029-170200-
NORTHWEST ARKANSAS

CITY           SKY/WX    TMP DP  RH WIND       PRES   REMARKS
FAYETTEVILLE   CLEAR     56  30  37 S9        30.01R
FORT SMITH     CLEAR     61  31  32 SE7       30.01R
HARRISON       CLEAR     52  29  41 S12       30.03R
BENTONVILLE    PTCLDY    55  28  35 S6        30.02R
ROGERS         PTCLDY    56  28  34 S9        30.02R
SILOAM SPGS    CLEAR     55  28  35 S9        30.02R
HIGHFILL       CLEAR     54  31  41 S9        30.00R
SPRINGDALE     PTCLDY    55  30  38 S17       30.03R
$$

ARZ004-005-016-170200-
NORTH CENTRAL ARKANSAS

CITY           SKY/WX    TMP DP  RH WIND       PRES   REMARKS
BATESVILLE     PTCLDY    54  30  40 SE3       30.10R
FLIPPIN        CLEAR     54  25  32 SE6       30.05S
MTN HOME       CLEAR     52  26  36 SE5       30.05R
$$

ARZ040-041-170200-
WEST CENTRAL ARKANSAS

CITY           SKY/WX    TMP DP  RH WIND       PRES   REMARKS
MENA           CLEAR     59  30  33 CALM      30.03S
MOUNT IDA      PTCLDY    54  34  46 CALM      30.03R
$$

ARZ009-017-025-026-028-170200-
NORTHEAST ARKANSAS

CITY           SKY/WX    TMP DP  RH WIND       PRES   REMARKS
CORNING        FAIR      50  37  62 SE6       30.13R
JONESBORO      PTCLDY    52  34  50 SW5       30.12R
NEWPORT        MOCLDY    52  39  61 S6        30.13R
WALNUT RIDGE   PTCLDY    52  37  58 SE3       30.12S
BLYTHEVILLE    PTCLDY    54  33  45 CALM      30.12S
$$

ARZ022-023-033-042-044-170200-
CENTRAL ARKANSAS

CITY           SKY/WX    TMP DP  RH WIND       PRES   REMARKS
LITTLE ROCK    MOCLDY    55  35  47 SE9       30.09R
N LITTLE ROCK  MOCLDY    55  38  52 SE8       30.09R
JACKSONVILLE   PTCLDY    55  37  51 E3        30.09S
SEARCY         MOCLDY    52  35  52 SW3       30.12R
HOT SPRINGS    PTCLDY    59  29  31 SE3       30.06R
RUSSELLVILLE   CLEAR     56  32  40 E5        30.05R
CLINTON        FAIR      54  32  43 SE6       30.09R
$$

ARZ036-170200-
EAST ARKANSAS

CITY           SKY/WX    TMP DP  RH WIND       PRES   REMARKS
WEST MEMPHIS   PTCLDY    53  38  56 CALM      30.11R
$$

ARZ050-053-066-070-073-170200-
SOUTHWEST ARKANSAS

CITY           SKY/WX    TMP DP  RH WIND       PRES   REMARKS
ARKADELPHIA    FAIR      56  41  57 E3        30.07R
CAMDEN         MOCLDY    55  34  44 MISG      30.07S
TEXARKANA      PTCLDY    55  36  48 CALM      30.04R
EL DORADO      MOCLDY    56  38  50 E3        30.07R
DE QUEEN       PTCLDY    56  35  45 E5        30.02R
$$

ARZ056-057-069-170200-
SOUTHEAST ARKANSAS

CITY           SKY/WX    TMP DP  RH WIND       PRES   REMARKS
PINE BLUFF     MOCLDY    53  39  59 SE10      30.09S
STUTTGART      MOCLDY    54  39  58 SE5       30.11R
MONTICELLO     MOCLDY    54  37  52 CALM      30.09S

$$





USA.gov is the U.S. government's official web portal to all federal, state and local government web resources and services.